| time (UTC) | temp F | wind direction | speed knots | gust knots | rain 1hr in | rain 24hr in | rain mn in | humidity % | barometer mb |
| 20260504032517 | 58 | 255 | 2.6 | 5.2 | 0.00 | 0.01 | 0.01 | 76 | 1033.4 |
| 20260504031518 | 58 | 262 | 1.7 | 5.2 | 0.00 | 0.01 | 0.01 | 76 | 1033.3 |
| 20260504030537 | 58 | 257 | 2.6 | 7.0 | 0.00 | 0.01 | 0.01 | 76 | 1033.3 |
| 20260504025517 | 59 | 249 | 2.6 | 6.1 | 0.00 | 0.01 | 0.01 | 75 | 1033.3 |
| 20260504024517 | 59 | 248 | 3.5 | 6.1 | 0.00 | 0.01 | 0.01 | 74 | 1033.2 |
| 20260504023518 | 59 | 250 | 3.5 | 8.7 | 0.00 | 0.01 | 0.01 | 74 | 1033.3 |
| 20260504022517 | 59 | 261 | 3.5 | 7.8 | 0.00 | 0.01 | 0.01 | 75 | 1033.3 |
| 20260504021516 | 59 | 40 | 2.6 | 6.1 | 0.00 | 0.01 | 0.01 | 74 | 1033.3 |
| 20260504020516 | 59 | 236 | 1.7 | 5.2 | 0.00 | 0.01 | 0.01 | 73 | 1033.4 |
| 20260504015518 | 60 | 290 | 1.7 | 7.8 | 0.00 | 0.01 | 0.01 | 74 | 1033.5 |
| 20260504014517 | 60 | 290 | 1.7 | 6.1 | 0.00 | 0.01 | 0.01 | 75 | 1033.5 |
| 20260504013516 | 60 | 256 | 2.6 | 7.0 | 0.00 | 0.01 | 0.01 | 74 | 1033.6 |
| 20260504012518 | 60 | 254 | 1.7 | 7.0 | 0.00 | 0.01 | 0.01 | 74 | 1033.7 |
| 20260504011517 | 60 | 214 | 1.7 | 4.3 | 0.00 | 0.01 | 0.01 | 75 | 1034.0 |
| 20260504010517 | 60 | 224 | 0.9 | 2.6 | 0.00 | 0.01 | 0.01 | 79 | 1034.0 |
| 20260504005516 | 59 | 129 | 1.7 | 3.5 | 0.00 | 0.01 | 0.01 | 79 | 1034.1 |
| 20260504004518 | 59 | 92 | 1.7 | 3.5 | 0.00 | 0.01 | 0.01 | 79 | 1034.2 |
| 20260504003537 | 58 | 86 | 0.0 | 1.7 | 0.00 | 0.01 | 0.01 | 80 | 1034.3 |
| 20260504002516 | 58 | 143 | 0.9 | 2.6 | 0.00 | 0.01 | 0.01 | 80 | 1034.2 |
| 20260504001518 | 58 | 77 | 0.9 | 2.6 | 0.00 | 0.01 | 0.01 | 80 | 1034.4 |
| 20260504000517 | 57 | 113 | 0.9 | 5.2 | 0.00 | 0.01 | 0.01 | 81 | 1034.6 |
| 20260503235517 | 56 | 111 | 1.7 | 3.5 | 0.00 | 0.01 | 0.01 | 81 | 1034.6 |
| 20260503234516 | 56 | 107 | 1.7 | 3.5 | 0.00 | 0.01 | 0.01 | 81 | 1034.6 |
| 20260503233518 | 55 | 93 | 0.9 | 2.6 | 0.00 | 0.01 | 0.01 | 82 | 1034.8 |
| 20260503232517 | 55 | 105 | 0.9 | 2.6 | 0.00 | 0.01 | 0.01 | 83 | 1035.0 |
| 20260503231536 | 54 | 71 | 0.9 | 2.6 | 0.00 | 0.01 | 0.01 | 84 | 1035.1 |
| 20260503230518 | 53 | 133 | 0.9 | 3.5 | 0.00 | 0.01 | 0.01 | 86 | 1035.1 |
| 20260503225517 | 51 | 118 | 0.9 | 2.6 | 0.00 | 0.01 | 0.01 | 88 | 1035.1 |
| 20260503224517 | 51 | 144 | 0.9 | 3.5 | 0.00 | 0.01 | 0.01 | 88 | 1035.0 |
| 20260503223516 | 50 | 110 | 0.9 | 2.6 | 0.00 | 0.01 | 0.01 | 89 | 1034.9 |
| 20260503222518 | 50 | 100 | 0.9 | 3.5 | 0.00 | 0.01 | 0.01 | 89 | 1034.9 |
| 20260503221517 | 49 | 101 | 0.9 | 2.6 | 0.00 | 0.01 | 0.01 | 91 | 1035.0 |
| 20260503220516 | 49 | 99 | 0.9 | 2.6 | 0.00 | 0.01 | 0.01 | 91 | 1035.0 |
| 20260503215538 | 48 | 86 | 0.9 | 2.6 | 0.00 | 0.01 | 0.01 | 92 | 1035.0 |
| 20260503214517 | 47 | 108 | 0.9 | 2.6 | 0.00 | 0.01 | 0.01 | 92 | 1035.1 |
| 20260503213517 | 47 | 98 | 0.9 | 1.7 | 0.00 | 0.01 | 0.01 | 93 | 1035.2 |
| 20260503212516 | 47 | 151 | 0.9 | 1.7 | 0.00 | 0.01 | 0.01 | 94 | 1035.2 |
| 20260503211538 | 46 | 112 | 0.0 | 0.9 | 0.00 | 0.01 | 0.01 | 95 | 1035.3 |
| 20260503210517 | 46 | 121 | 0.0 | 1.7 | 0.00 | 0.01 | 0.01 | 96 | 1035.3 |
| 20260503205517 | 46 | 156 | 0.0 | 1.7 | 0.00 | 0.01 | 0.01 | 96 | 1035.4 |
| 20260503204518 | 46 | 155 | 0.0 | 0.9 | 0.00 | 0.01 | 0.01 | 97 | 1035.3 |
| 20260503203517 | 45 | 82 | 0.0 | 1.7 | 0.00 | 0.01 | 0.01 | 98 | 1035.2 |
| 20260503202517 | 44 | 52 | 0.0 | 1.7 | 0.00 | 0.01 | 0.01 | 98 | 1035.2 |
| 20260503201517 | 44 | 0.0 | 0.0 | 0.00 | 0.01 | 0.01 | 98 | 1035.2 | |
| 20260503200538 | 43 | 0.0 | 0.0 | 0.00 | 0.01 | 0.01 | 98 | 1035.0 | |
| 20260503195517 | 41 | 0.0 | 0.9 | 0.00 | 0.01 | 0.01 | 98 | 1034.9 | |
| 20260503194517 | 41 | 337 | 0.0 | 0.9 | 0.00 | 0.01 | 0.01 | 98 | 1034.8 |
| 20260503193516 | 41 | 323 | 0.0 | 0.9 | 0.00 | 0.01 | 0.01 | 98 | 1034.6 |
| 20260503192518 | 40 | 325 | 0.0 | 0.9 | 0.00 | 0.01 | 0.01 | 98 | 1034.6 |
| 20260503191518 | 40 | 318 | 0.0 | 1.7 | 0.00 | 0.01 | 0.01 | 98 | 1034.6 |
| 20260503190517 | 40 | 0.0 | 0.0 | 0.00 | 0.01 | 0.01 | 98 | 1034.6 | |
| 20260503185516 | 40 | 128 | 0.0 | 0.9 | 0.00 | 0.01 | 0.01 | 98 | 1034.6 |
| 20260503184517 | 40 | 183 | 0.0 | 0.9 | 0.00 | 0.01 | 0.01 | 98 | 1034.5 |
| 20260503183517 | 40 | 304 | 0.0 | 0.9 | 0.00 | 0.01 | 0.01 | 98 | 1034.5 |
| 20260503182516 | 40 | 333 | 0.0 | 0.9 | 0.00 | 0.01 | 0.01 | 97 | 1034.4 |
| 20260503181518 | 40 | 231 | 0.0 | 0.9 | 0.00 | 0.01 | 0.01 | 97 | 1034.5 |
| 20260503180517 | 40 | 227 | 0.0 | 0.9 | 0.00 | 0.01 | 0.01 | 97 | 1034.5 |
| 20260503175516 | 41 | 218 | 0.0 | 0.9 | 0.00 | 0.01 | 0.01 | 97 | 1034.4 |
| 20260503174518 | 41 | 142 | 0.0 | 0.9 | 0.00 | 0.01 | 0.01 | 97 | 1034.6 |
| 20260503173537 | 42 | 0.0 | 0.9 | 0.00 | 0.01 | 0.01 | 97 | 1034.5 | |
| 20260503172517 | 42 | 135 | 0.0 | 0.9 | 0.00 | 0.01 | 0.01 | 97 | 1034.6 |
| 20260503171516 | 42 | 253 | 0.0 | 0.9 | 0.00 | 0.01 | 0.01 | 97 | 1034.4 |
| 20260503170538 | 42 | 261 | 0.0 | 1.7 | 0.00 | 0.01 | 0.01 | 97 | 1034.5 |
| 20260503150516 | 42 | 213 | 0.0 | 0.9 | 0.00 | 0.01 | 0.01 | 97 | 1034.9 |
| 20260503130517 | 45 | 272 | 0.0 | 0.9 | 0.01 | 0.01 | 0.01 | 96 | 1034.8 |
| 20260503110518 | 48 | 287 | 0.9 | 1.7 | 0.00 | 0.00 | 0.00 | 93 | 1034.8 |
| 20260503081516 | 51 | 294 | 0.0 | 0.9 | 0.00 | 0.00 | 0.00 | 86 | 1034.1 |
| 20260503080517 | 52 | 293 | 0.9 | 2.6 | 0.00 | 0.00 | 0.00 | 85 | 1034.2 |
| 20260503072518 | 52 | 290 | 0.9 | 6.1 | 0.00 | 0.00 | 0.00 | 86 | 1034.0 |
| 20260503071518 | 52 | 288 | 0.9 | 4.3 | 0.00 | 0.00 | 0.00 | 86 | 1033.9 |
| 20260503070537 | 52 | 282 | 0.9 | 3.5 | 0.00 | 0.00 | 0.00 | 86 | 1033.9 |
| 20260503054516 | 54 | 252 | 0.9 | 4.3 | 0.00 | 0.00 | 0.00 | 84 | 1033.5 |
| 20260503053518 | 54 | 258 | 0.9 | 5.2 | 0.00 | 0.00 | 0.00 | 84 | 1033.3 |
| 20260503052517 | 54 | 263 | 0.9 | 2.6 | 0.00 | 0.00 | 0.00 | 84 | 1033.2 |
| 20260503051516 | 55 | 300 | 0.9 | 3.5 | 0.00 | 0.00 | 0.00 | 85 | 1033.3 |
| 20260503050516 | 55 | 288 | 0.9 | 1.7 | 0.00 | 0.00 | 0.00 | 85 | 1033.2 |
| 20260503045518 | 55 | 294 | 0.9 | 1.7 | 0.00 | 0.00 | 0.00 | 85 | 1033.2 |
| 20260503044658 | 55 | 277 | 0.9 | 3.5 | 0.00 | 0.00 | 0.00 | 85 | 1033.2 |
| 20260503043517 | 54 | 301 | 0.9 | 2.6 | 0.00 | 0.00 | 0.00 | 86 | 1033.2 |
| 20260503042518 | 55 | 311 | 0.9 | 1.7 | 0.00 | 0.00 | 0.00 | 88 | 1033.2 |
| 20260503041538 | 55 | 311 | 0.9 | 0.9 | 0.00 | 0.00 | 0.00 | 89 | 1033.2 |
| 20260503040517 | 55 | 311 | 0.9 | 0.9 | 0.00 | 0.00 | 0.00 | 89 | 1033.2 |
| 20260503035516 | 56 | 311 | 0.9 | 0.9 | 0.00 | 0.00 | 0.00 | 89 | 1033.2 |
| 20260503034518 | 56 | 311 | 0.9 | 0.9 | 0.00 | 0.00 | 0.00 | 88 | 1033.2 |
| 20260503033517 | 56 | 311 | 0.9 | 0.9 | 0.00 | 0.00 | 0.00 | 88 | 1033.4 |